| time (UTC) | temp C | wind direction | speed KPH | gust KPH | rain 1hr cm | rain 24hr cm | rain mn cm | humidity % | barometer mb |
| 20260505223004 | 2 | 347 | 3.2 | 11.3 | 0.00 | 0.00 | 0.00 | 92 | 1010.0 |
| 20260505221504 | 3 | 354 | 4.8 | 14.5 | 0.00 | 0.00 | 0.00 | 94 | 1009.8 |
| 20260505214503 | 2 | 27 | 0.0 | 0.0 | 0.00 | 0.00 | 0.00 | 92 | 1009.2 |
| 20260505213004 | 2 | 27 | 0.0 | 0.0 | 0.00 | 0.00 | 0.00 | 92 | 1009.2 |
| 20260505211504 | 2 | 27 | 3.2 | 8.0 | 0.00 | 0.00 | 0.00 | 91 | 1009.3 |
| 20260505210003 | 2 | 43 | 3.2 | 8.0 | 0.00 | 0.00 | 0.00 | 90 | 1009.0 |
| 20260505204504 | 3 | 58 | 4.8 | 8.0 | 0.00 | 0.00 | 0.00 | 90 | 1008.8 |
| 20260505203004 | 3 | 70 | 3.2 | 4.8 | 0.00 | 0.00 | 0.00 | 89 | 1008.8 |
| 20260505201504 | 3 | 71 | 3.2 | 8.0 | 0.00 | 0.00 | 0.00 | 88 | 1008.8 |
| 20260505194504 | 5 | 98 | 0.0 | 0.0 | 0.00 | 0.00 | 0.00 | 85 | 1008.3 |
| 20260505193004 | 6 | 98 | 0.0 | 0.0 | 0.00 | 0.00 | 0.00 | 84 | 1008.3 |
| 20260505191504 | 6 | 98 | 0.0 | 0.0 | 0.00 | 0.00 | 0.00 | 81 | 1008.2 |
| 20260505184504 | 10 | 98 | 1.6 | 8.0 | 0.00 | 0.00 | 0.00 | 71 | 1008.1 |
| 20260505181503 | 11 | 110 | 3.2 | 12.9 | 0.00 | 0.00 | 0.00 | 65 | 1007.9 |
| 20260505180004 | 11 | 103 | 1.6 | 11.3 | 0.00 | 0.00 | 0.00 | 63 | 1007.5 |
| 20260505174504 | 12 | 109 | 1.6 | 16.1 | 0.00 | 0.00 | 0.00 | 61 | 1007.5 |
| 20260505173003 | 12 | 100 | 8.0 | 19.3 | 0.00 | 0.00 | 0.00 | 59 | 1007.5 |
| 20260505171505 | 12 | 101 | 9.7 | 16.1 | 0.00 | 0.00 | 0.00 | 57 | 1007.3 |
| 20260505170003 | 13 | 76 | 9.7 | 19.3 | 0.00 | 0.00 | 0.00 | 52 | 1007.3 |
| 20260505164504 | 13 | 79 | 11.3 | 20.9 | 0.00 | 0.00 | 0.00 | 50 | 1007.3 |
| 20260505163004 | 14 | 63 | 9.7 | 19.3 | 0.00 | 0.00 | 0.00 | 44 | 1007.3 |
| 20260505161503 | 14 | 61 | 4.8 | 19.3 | 0.00 | 0.00 | 0.00 | 36 | 1007.3 |
| 20260505153004 | 17 | 84 | 4.8 | 14.5 | 0.00 | 0.00 | 0.00 | 27 | 1007.1 |
| 20260505151503 | 17 | 302 | 6.4 | 22.5 | 0.00 | 0.00 | 0.00 | 25 | 1007.1 |
| 20260505124505 | 17 | 285 | 9.7 | 22.5 | 0.00 | 0.00 | 0.00 | 32 | 1007.2 |
| 20260505123004 | 17 | 322 | 11.3 | 20.9 | 0.00 | 0.00 | 0.00 | 36 | 1007.2 |
| 20260505121503 | 16 | 307 | 3.2 | 22.5 | 0.00 | 0.00 | 0.00 | 36 | 1007.2 |
| 20260505114503 | 17 | 266 | 6.4 | 25.7 | 0.00 | 0.00 | 0.00 | 38 | 1007.1 |
| 20260505111503 | 17 | 242 | 16.1 | 27.4 | 0.00 | 0.00 | 0.00 | 40 | 1007.2 |
| 20260505101504 | 16 | 257 | 8.0 | 25.7 | 0.00 | 0.00 | 0.00 | 43 | 1007.2 |
| 20260505094505 | 15 | 247 | 17.7 | 29.0 | 0.00 | 0.00 | 0.00 | 44 | 1007.3 |
| 20260505093004 | 16 | 291 | 9.7 | 24.1 | 0.00 | 0.00 | 0.00 | 45 | 1007.3 |
| 20260505091504 | 16 | 303 | 14.5 | 22.5 | 0.00 | 0.00 | 0.00 | 47 | 1007.3 |
| 20260505090005 | 15 | 286 | 9.7 | 27.4 | 0.00 | 0.00 | 0.00 | 50 | 1007.3 |
| 20260505084503 | 15 | 278 | 9.7 | 24.1 | 0.00 | 0.03 | 0.00 | 54 | 1007.4 |
| 20260505081503 | 13 | 248 | 14.5 | 24.1 | 0.00 | 0.03 | 0.00 | 58 | 1007.4 |
| 20260505080004 | 13 | 273 | 11.3 | 25.7 | 0.00 | 0.03 | 0.00 | 60 | 1007.4 |
| 20260505074503 | 13 | 263 | 11.3 | 25.7 | 0.00 | 0.03 | 0.00 | 60 | 1007.4 |
| 20260505073004 | 13 | 263 | 6.4 | 19.3 | 0.00 | 0.03 | 0.00 | 63 | 1007.5 |
| 20260505071504 | 12 | 250 | 8.0 | 24.1 | 0.00 | 0.03 | 0.00 | 66 | 1007.5 |
| 20260505070004 | 12 | 276 | 11.3 | 29.0 | 0.00 | 0.03 | 0.00 | 65 | 1007.5 |
| 20260505064503 | 12 | 241 | 8.0 | 24.1 | 0.00 | 0.03 | 0.00 | 67 | 1007.3 |
| 20260505063004 | 11 | 257 | 11.3 | 24.1 | 0.00 | 0.03 | 0.00 | 69 | 1007.3 |
| 20260505061504 | 11 | 260 | 16.1 | 24.1 | 0.00 | 0.03 | 0.00 | 71 | 1007.4 |
| 20260505060003 | 10 | 271 | 12.9 | 20.9 | 0.00 | 0.03 | 0.00 | 72 | 1007.4 |
| 20260505054504 | 10 | 267 | 16.1 | 27.4 | 0.00 | 0.03 | 0.00 | 76 | 1007.4 |
| 20260505053004 | 9 | 268 | 14.5 | 20.9 | 0.00 | 0.03 | 0.00 | 79 | 1007.4 |
| 20260505051504 | 8 | 277 | 8.0 | 19.3 | 0.00 | 0.03 | 0.00 | 85 | 1007.4 |
| 20260505041504 | 3 | 247 | 1.6 | 8.0 | 0.00 | 0.18 | 0.00 | 95 | 1007.1 |
| 20260505040005 | 2 | 240 | 3.2 | 8.0 | 0.00 | 0.18 | 0.00 | 95 | 1007.1 |
| 20260505034504 | 2 | 237 | 6.4 | 11.3 | 0.00 | 0.18 | 0.00 | 94 | 1007.0 |
| 20260505033004 | 2 | 227 | 6.4 | 11.3 | 0.00 | 0.18 | 0.00 | 94 | 1006.8 |
| 20260505031503 | 2 | 229 | 4.8 | 9.7 | 0.00 | 0.20 | 0.00 | 93 | 1006.8 |
| 20260505030004 | 2 | 223 | 8.0 | 9.7 | 0.00 | 0.20 | 0.00 | 93 | 1006.7 |
| 20260505024504 | 2 | 230 | 4.8 | 8.0 | 0.00 | 0.20 | 0.00 | 92 | 1006.7 |
| 20260505023004 | 2 | 229 | 4.8 | 9.7 | 0.00 | 0.23 | 0.00 | 91 | 1006.7 |
| 20260505014504 | 4 | 246 | 4.8 | 9.7 | 0.00 | 0.23 | 0.00 | 87 | 1006.7 |
| 20260505011503 | 6 | 247 | 8.0 | 14.5 | 0.00 | 0.23 | 0.00 | 85 | 1006.7 |
| 20260505010004 | 6 | 260 | 9.7 | 19.3 | 0.00 | 0.23 | 0.00 | 83 | 1006.6 |
| 20260505004504 | 6 | 263 | 4.8 | 11.3 | 0.00 | 0.23 | 0.00 | 80 | 1006.6 |
| 20260505003004 | 7 | 257 | 8.0 | 12.9 | 0.00 | 0.23 | 0.00 | 79 | 1006.7 |
| 20260505000003 | 7 | 248 | 9.7 | 14.5 | 0.00 | 0.23 | 0.00 | 76 | 1006.7 |
| 20260504234504 | 7 | 257 | 8.0 | 16.1 | 0.00 | 0.23 | 0.00 | 75 | 1006.7 |
| 20260504231503 | 8 | 255 | 11.3 | 19.3 | 0.00 | 0.23 | 0.00 | 73 | 1006.8 |
| 20260504230005 | 8 | 247 | 11.3 | 19.3 | 0.00 | 0.23 | 0.00 | 72 | 1006.9 |
| 20260504224503 | 8 | 251 | 8.0 | 14.5 | 0.00 | 0.23 | 0.00 | 71 | 1006.9 |